Welcome to the New NWS' Forecast!
Most changes are behind the scenes, but click here for differences you might notice.
Latest weather observations around

San Francisco, San Francisco International Airport (KSFO)

Using English Units (Switch to International System of Units)
Date/ Time (PDT) Wind (mph) Vis. (mi) Weather Sky Cond. Temp (°F) Rel. Humidity Wind Chill (°F) Heat Index (°F) Pressure Precip. (in)
Air Dwpt 6 hour Altimeter (inHg) Sea level (inHg) 1 hr 3 hr 6 hr
Max Min
Jul 19 05:56 WNW 5 10 Mostly Cloudy FEW005 SCT008 BKN010 58 55     90%     29.93 29.93      
Jul 19 04:56 W 5 10 Mostly Cloudy FEW004 BKN010 56 54     93%     29.93 29.93      
Jul 19 03:56 WNW 6 10 Mostly Cloudy FEW004 BKN010 55 54     96%     29.93 29.93      
Jul 19 02:56 W 7 10 Mostly Clear FEW004 55 54     96%     29.92 29.92      
Jul 19 01:56 WNW 9 10 Mostly Clear FEW004 55 54     96%     29.93 29.92      
Jul 19 00:56 WNW 9 10 Mostly Clear FEW004 56 54     93%     29.93 29.93      
Jul 18 23:56 WNW 9 10 Mostly Clear FEW005 58 54     87%     29.94 29.93      
Jul 18 22:56 WNW 11 10 Mostly Clear FEW005 58 55     90%     29.95 29.94      
Jul 18 21:56 WNW 10 10 Mostly Clear FEW004 59 55     87%     29.94 29.94      
Jul 18 20:56 WNW 13 10 Partly Cloudy FEW004 SCT180 59 54     83%     29.92 29.92      
Jul 18 19:56   10 Partly Cloudy FEW005 SCT200 59 54     83%     29.91 29.91      
Jul 18 18:56   10 Partly Cloudy FEW005 SCT200 61 54     78%     29.91 29.91      
Jul 18 17:56   10 Partly Cloudy FEW006 SCT200 64 55     73%     29.91 29.91      
Jul 18 16:56   10 Mostly Cloudy FEW006 BKN200 67 55     66%     29.92 29.92      
Jul 18 15:56   10 Mostly Cloudy FEW007 BKN200 69 56     63%     29.93 29.93      
Jul 18 14:56   10 Mostly Cloudy FEW008 BKN200 70 56     61%     29.95 29.95      
Jul 18 13:56   10 Mostly Cloudy FEW010 BKN200 71 56     59%   71 29.97 29.96      
Jul 18 12:56   10 Mostly Cloudy FEW010 BKN200 68 56     65%     29.98 29.98      
Jul 18 11:56 NNE 7 10 Mostly Cloudy FEW010 BKN200 66 57     73%     29.99 29.99      
Jul 18 10:56 N 9 10 Mostly Clear FEW011 FEW200 66 56     70%     29.99 29.99      
Jul 18 09:56 NNW 7 10 Partly Cloudy FEW009 SCT012 63 55     75%     30 30      
Jul 18 08:56 NNW 5 10 Partly Cloudy FEW005 SCT009 61 54     78%     30 30      
Jul 18 07:56 NW 7 10 Cloudy FEW005 OVC009 59 54     83%     29.99 29.99      
Jul 18 06:56 WNW 7 10 Cloudy FEW004 BKN007 OVC010 56 53     90%     29.98 29.98      
Jul 18 05:56 WNW 6 10 Cloudy FEW004 BKN007 OVC010 57 52     83%     29.98 29.97      
Jul 18 04:56 WNW 3 10 Clear   55 53     93%     29.97 29.97      
Jul 18 03:56 WNW 7 10 Cloudy FEW004 BKN007 OVC010 56 53     90%     29.98 29.97      
Jul 18 02:56 WNW 8 10 Mostly Cloudy FEW004 BKN010 56 53     90%     29.98 29.98      
Jul 18 01:56 WNW 9 10 Mostly Clear FEW005 56 53     90%     29.98 29.98      
Jul 18 00:56 WNW 10 10 Mostly Clear FEW004 56 53     90%     29.98 29.98      
Jul 17 23:56 WNW 13 10 Mostly Clear FEW004 56 53     90%     29.98 29.98      
Jul 17 22:56 WNW 15 10 Mostly Clear FEW004 56 54     93%     29.97 29.97      
Jul 17 21:56   10 Mostly Clear FEW003 55 54     96%     29.96 29.96      
Jul 17 20:56   10 Mostly Clear FEW003 FEW200 56 54     93%     29.95 29.95      
Jul 17 19:56   10 Mostly Clear FEW003 FEW200 60 54     80%     29.94 29.94      
Jul 17 18:56   10 Mostly Clear FEW004 FEW200 61 54     78%     29.94 29.94      
Jul 17 17:56   10 Mostly Clear FEW003 FEW200 64 54     70%     29.94 29.94      
Jul 17 16:56   10 Partly Cloudy FEW005 SCT200 65 54     68%     29.95 29.95      
Jul 17 15:56   10 Partly Cloudy FEW006 SCT200 67 54     63%     29.96 29.96      
Jul 17 14:56 WNW 21 10 Partly Cloudy and Windy FEW007 SCT200 67 54     63%     29.97 29.97      
Jul 17 13:56   10 Mostly Cloudy BKN200 67 54     63%     29.99 29.98      
Jul 17 12:56   10 Mostly Cloudy FEW020 BKN200 67 55     66%     30 30      
Jul 17 11:56 WNW 15 10 Mostly Clear FEW020 FEW200 66 55     68%     30.01 30.01      
Jul 17 10:56   10 Mostly Clear FEW020 64 55     73%     30.01 30.01      
Jul 17 09:56 NNW 7 10 Partly Cloudy FEW007 SCT010 62 54     75%     30.02 30.02      
Jul 17 09:44 5 10 Partly Cloudy FEW007 SCT010 62 54     75%     30.02        
Jul 17 08:56 Calm 9 Mostly Cloudy FEW005 BKN010 58 53     84%     30.02 30.02      
Jul 17 08:44 Calm 9 Cloudy FEW005 OVC010 59 53     81%     30.02        
Jul 17 07:56 3 9 Cloudy FEW004 OVC006 56 53     90%     30.02 30.02      
Jul 17 06:56 SW 6 9 Cloudy FEW004 OVC006 56 52     87%     30.01 30.01      
Jul 17 05:56 W 8 10 Cloudy FEW003 OVC006 56 53     90%     29.99 29.99      
Jul 17 04:56 WNW 9 10 Mostly Cloudy FEW004 BKN008 57 53     87%     29.98 29.98      
Jul 17 04:39 W 9 10 Mostly Cloudy FEW004 BKN008 56 53     90%     29.98        
Jul 17 03:56 W 9 10 Partly Cloudy FEW004 FEW007 SCT200 55 53     93%     29.99 29.98      
Jul 17 02:56 WNW 11 10 Mostly Clear FEW004 FEW008 55 52     89%     29.99 29.99      
Jul 17 01:56 W 10 10 Clear   56 53     90%     29.99 29.99      
Jul 17 00:56 WNW 13 10 Mostly Clear FEW005 55 53     93%     29.99 29.98      
Jul 16 23:56 WNW 13 10 Mostly Clear FEW007 56 53     90%     29.98 29.98      
Jul 16 22:56 WNW 16 10 Mostly Clear FEW006 57 53     87%     29.98 29.98      
Jul 16 21:56   10 Mostly Clear FEW006 58 53     84%     29.97 29.97      
Jul 16 20:56   10 Mostly Clear FEW006 59 53     81%     29.95 29.95      
Jul 16 19:56   10 Mostly Clear FEW008 59 53     81%     29.95 29.94      
Jul 16 18:56   10 Mostly Clear FEW007 61 54     78%     29.95 29.94      
Jul 16 17:56   10 Mostly Clear FEW008 65 54     68%     29.95 29.95      
Jul 16 16:56   10 Mostly Clear FEW008 66 54     65%     29.96 29.95      
Jul 16 15:56   10 Mostly Clear FEW009 67 54     63%     29.96 29.96      
Jul 16 14:56   10 Mostly Clear FEW009 68 54     61%     29.97 29.97      
Jul 16 13:56   10 Mostly Clear FEW010 67 53     61%     29.97 29.97      
Jul 16 12:56   10 Mostly Clear FEW010 67 54     63%     29.99 29.98      
Jul 16 10:56 NW 13 10 Mostly Clear FEW010 65 54     68%     30 30      
Jul 16 09:56 NW 8 10 Partly Cloudy FEW010 SCT014 63 54     72%     30.01 30      
Jul 16 09:46 NW 9 10 Partly Cloudy FEW010 SCT014 62 54     75%     30.01        
Jul 16 08:56 NW 8 10 Cloudy OVC012 60 53     78%     30.01 30.01      
Jul 16 07:56 W 6 10 Cloudy OVC010 59 53     81%     30.01 30.01      
Jul 16 06:56 WNW 7 10 Cloudy OVC010 57 52     83%     30 30      
May 15 07:56 S 7 10 Cloudy FEW013 BKN020 OVC024 57 46     67%     30.03 30.03      
May 15 01:56 SW 8 10 Mostly Cloudy FEW016 BKN019 BKN022 57 46     67%     30 30      
May 14 15:56 WSW 17 10 Mostly Clear FEW027 64 47     54%     29.98 29.98      
May 14 14:56 W 18 10 Mostly Clear FEW026 64 48     56%     29.99 29.99      
May 14 13:56 WSW 17 10 Partly Cloudy SCT026 64 48     56%     30 30      
May 14 13:46   10 Partly Cloudy SCT026 64 47     54%     30        
May 13 13:56   10 Mostly Clear FEW017 66 48     52%     30.01 30.01      
Notice The following observation data may not be complete
May 12 13:56 SW 13 10 Mostly Clear FEW015   47      %     29.88 29.88      
Notice The following observation data may not be complete
May 12 06:56 W 11 10 Clear CLR   42      %     29.83 29.83      
May 12 00:56 WNW 7 10 Clear CLR 71 38     30%   69 29.81 29.8      
May 11 22:56   10 Clear CLR 67 41     39%     29.8 29.8      
Jun 12 03:56 W 15 10 Mostly Clear FEW012 53 48     83%     30.02 30.02      
Jun 11 22:56 W 11 10 Clear CLR 55 49     80%     30.01 30.01      
Jun 11 08:56   10 Mostly Clear FEW022 58 44     60%     29.95 29.95      
Jun 10 16:56 W 17 10 Mostly Clear FEW020 FEW033 65 46     50%     29.96 29.96      
Jun 09 23:56 W 15 10 Mostly Clear FEW013 56 50     80%     30 29.99      
Jun 09 19:56 W 15 10 Mostly Clear FEW021 59 49     69%     29.97 29.97      
Jun 09 09:23 W 15 10 Cloudy SCT007 BKN018 OVC039 58 51     78%     29.97        
Jun 09 02:56 W 6 10 Mostly Cloudy FEW011 SCT041 BKN090 60 55     83%     29.96 29.95      
Jun 08 16:56 SSW 7 10 Cloudy BKN018 OVC025 66 57     73%     30 29.99     0
Jun 08 08:56 SSE 9 10 Cloudy FEW014 SCT024 OVC034 60 52     75%     29.99 29.98 0    
Jun 08 06:56 SSE 14 10 Cloudy FEW014 OVC043 61 51     70%     29.95 29.95      
Jun 08 03:56 S 9 10 Cloudy FEW055 BKN075 OVC100 60 49     67%     29.94 29.93      
Jun 07 21:56 SSW 5 10 Cloudy FEW013 SCT110 OVC150 61 44     54%     29.94 29.94      
Jun 06 07:56 WNW 7 10 Mostly Clear FEW008 57 49     74%     29.94 29.94